J F Mitchell Airport


Codes: TVSB/BQU
Name: J F Mitchell Airport
City: Bequia
Country: Saint Vincent and the Grenadines
Elevation: 15 ft.
Wikipedia:

Photos at J F Mitchell Airport


   Photos courtesy of SpottingLog. You can add your own sightings and photos by signing up for a free trial today.



No photos found.

Weather at J F Mitchell Airport


Time (UTC)DescriptionTempratureWindCloud coverageVisibilityPressureHumidity
25-Jun-2024 15:00Light Rain28°C20 mph, SE100%10000m1015hPa83%
25-Jun-2024 18:00Overcast Clouds28°C18 mph, E100%10000m1014hPa83%
25-Jun-2024 21:00Light Rain28°C16 mph, E72%10000m1014hPa83%
26-Jun-2024 00:00Light Rain28°C18 mph, E86%10000m1015hPa81%
26-Jun-2024 03:00Light Rain28°C18 mph, E70%10000m1016hPa81%
26-Jun-2024 06:00Light Rain28°C18 mph, E83%10000m1015hPa79%
26-Jun-2024 09:00Light Rain28°C16 mph, E90%10000m1015hPa77%
26-Jun-2024 12:00Light Rain28°C16 mph, E66%10000m1016hPa79%
26-Jun-2024 15:00Scattered Clouds28°C16 mph, E41%10000m1016hPa78%
26-Jun-2024 18:00Broken Clouds28°C16 mph, E70%10000m1014hPa78%
26-Jun-2024 21:00Scattered Clouds28°C13 mph, E38%10000m1013hPa77%
27-Jun-2024 00:00Few Clouds28°C13 mph, E19%10000m1015hPa78%
27-Jun-2024 03:00Clear Sky28°C13 mph, E0%10000m1016hPa77%
27-Jun-2024 06:00Clear Sky28°C16 mph, E0%10000m1014hPa73%
27-Jun-2024 09:00Clear Sky28°C16 mph, E4%10000m1014hPa73%
27-Jun-2024 12:00Clear Sky28°C16 mph, E6%10000m1015hPa72%
27-Jun-2024 15:00Clear Sky28°C13 mph, E4%10000m1015hPa75%
27-Jun-2024 18:00Clear Sky28°C13 mph, E2%10000m1013hPa74%
27-Jun-2024 21:00Clear Sky28°C16 mph, E0%10000m1013hPa74%
28-Jun-2024 00:00Clear Sky28°C16 mph, E4%10000m1014hPa77%
28-Jun-2024 03:00Light Rain28°C18 mph, E20%10000m1014hPa76%
28-Jun-2024 06:00Few Clouds28°C18 mph, E11%10000m1012hPa73%
28-Jun-2024 09:00Few Clouds28°C18 mph, E14%10000m1012hPa73%
28-Jun-2024 12:00Clear Sky28°C16 mph, E9%10000m1014hPa76%
28-Jun-2024 15:00Light Rain28°C16 mph, E3%10000m1014hPa74%
28-Jun-2024 18:00Clear Sky28°C16 mph, E4%10000m1013hPa73%
28-Jun-2024 21:00Clear Sky28°C18 mph, E1%10000m1012hPa77%
29-Jun-2024 00:00Light Rain28°C20 mph, E7%10000m1013hPa78%
29-Jun-2024 03:00Light Rain28°C18 mph, E16%10000m1015hPa79%
29-Jun-2024 06:00Light Rain27°C18 mph, E22%10000m1013hPa79%
29-Jun-2024 09:00Light Rain27°C18 mph, NE23%10000m1013hPa79%
29-Jun-2024 12:00Light Rain28°C20 mph, E43%10000m1014hPa79%
29-Jun-2024 15:00Light Rain27°C22 mph, E91%10000m1015hPa81%
29-Jun-2024 18:00Moderate Rain27°C20 mph, SE95%10000m1014hPa81%
29-Jun-2024 21:00Overcast Clouds28°C16 mph, E100%10000m1014hPa78%
30-Jun-2024 00:00Light Rain28°C20 mph, E100%10000m1015hPa81%
30-Jun-2024 03:00Light Rain28°C20 mph, E100%10000m1016hPa81%
30-Jun-2024 06:00Light Rain28°C20 mph, E100%10000m1015hPa81%
30-Jun-2024 09:00Light Rain28°C20 mph, E87%10000m1015hPa80%
30-Jun-2024 12:00Overcast Clouds28°C20 mph, E92%10000m1016hPa78%